GFSNIL_con_3kmhel_057.txt.gz
Helicity
-60 -58 -41 27 26 44 23 15 50 56 32 18 33 14 4 -9 -20 -6 -11 -2 -6 8
51 -82 -73 -36 21 -5 61 20 51 110 69 24 15 28 16 -3 -2 -10 -8 -13 -3 -4
54 40 7 -40 -18 23 -1 51 48 149 107 46 14 20 8 1 -11 -4 -2 4 12 8
76 85 88 32 -33 52 27 73 106 140 117 64 47 29 19 5 -16 2 4 -1 11 29
122 120 50 104 38 -7 50 74 113 127 101 71 46 51 43 15 -11 -23 -11 6 10 15
114 108 78 57 109 68 35 -17 103 145 160 130 84 56 46 37 -4 -15 -33 -5 -3 10
119 109 99 106 84 129 83 77 49 124 135 188 166 123 74 56 27 6 -12 -21 -19 -17
153 115 104 105 110 83 126 73 106 129 154 127 132 98 91 81 59 37 4 -15 -9 -15
181 152 124 116 116 114 113 144 105 75 110 142 104 86 91 82 70 70 64 26 -7 -9
186 173 164 152 138 124 105 122 172 122 103 111 121 105 89 85 57 48 56 59 40 7
213 200 204 191 158 130 125 123 115 132 135 125 115 123 94 86 57 63 62 73 81 61
279 210 205 197 192 186 179 151 135 132 139 130 109 113 113 101 78 67 93 96 92 85
317 271 251 236 210 194 175 154 172 146 141 158 134 136 119 130 126 111 128 116 111 125
355 319 284 249 236 219 205 186 165 152 146 135 139 127 131 142 138 131 158 151 127 118

GFSNIL_con_3kmhel_060.txt.gz
Helicity
-60 -80 -51 -14 9 21 27 44 38 40 35 30 20 14 11 -15 -43 -35 -30 -8 -4 13
-36 -68 -94 -22 -18 26 10 11 25 42 25 24 19 11 5 -2 -19 -41 -31 -18 -18 -5
-24 -28 -65 -58 -40 -28 -32 -6 18 44 29 13 7 -1 -8 -13 -7 -6 -13 -14 -20 -16
23 -22 -33 -66 -55 -41 -51 -25 13 33 74 40 19 12 1 -19 -19 -14 -14 -11 3 12
145 48 -22 -62 -69 -67 -43 19 23 62 93 72 30 21 16 -9 -25 -27 -17 -7 -12 17
137 112 -2 -25 -56 -47 -53 59 77 89 80 88 53 33 21 15 -4 -14 -27 -31 -20 2
224 148 102 70 16 -23 -25 -43 51 86 101 111 93 68 43 26 13 -8 -26 -46 -54 -26
241 249 201 156 116 54 15 -17 53 99 79 77 81 69 67 47 36 13 -20 -43 -51 -48
179 270 235 212 181 164 74 40 58 124 106 130 109 90 104 91 33 19 9 -18 -38 -40
261 182 219 230 196 153 124 109 9 78 114 84 124 141 124 105 65 8 11 17 -3 -32
223 252 217 235 195 164 147 131 118 101 112 104 95 104 108 102 93 46 11 25 35 25
205 275 339 233 205 188 168 146 136 129 116 108 84 101 90 105 103 56 13 28 20 27
163 132 265 267 249 207 190 144 129 120 141 135 124 139 116 119 110 63 67 65 49 36
57 45 143 250 277 261 215 177 151 127 128 129 136 109 118 126 107 62 90 89 85 96

GFSNIL_con_3kmhel_063.txt.gz
Helicity
5 -12 -23 -43 -28 -5 9 15 29 38 7 16 21 15 10 -7 -4 -5 -14 -4 18 23
6 -21 -18 -17 -20 -25 -6 10 33 54 26 8 14 10 17 9 -7 -23 -12 -1 -2 -7
15 4 -15 -11 -16 -17 -8 10 12 33 26 26 18 12 2 -6 -17 -21 -23 -22 -18 -10
147 88 110 -31 -30 -27 -17 -23 -15 -8 5 24 19 16 12 -5 -18 -16 -25 -28 -24 -15
182 170 159 -9 -30 -44 -37 -27 -28 -24 -21 5 45 23 21 10 -13 -13 -21 -20 -22 -2
167 181 149 141 148 64 -17 -39 -25 -22 -14 2 46 57 33 27 -3 -22 -17 -27 -20 -9
223 175 154 161 160 170 138 17 -6 24 25 9 8 29 54 28 18 -7 -29 -36 -43 -34
195 194 167 139 147 189 184 147 141 124 115 84 73 15 22 29 16 10 -2 -22 -36 -47
203 200 187 185 163 139 154 165 185 156 133 123 98 43 41 48 27 7 6 -10 -17 -27
215 230 232 220 207 171 146 145 157 158 150 119 105 61 28 51 32 11 6 10 -14 -37
175 220 232 215 223 205 180 172 157 143 168 165 143 96 58 51 44 9 2 2 -7 -17
161 229 243 245 222 204 192 168 156 146 148 166 153 147 126 132 95 42 2 3 47 24
116 169 235 242 217 212 205 192 188 154 150 138 130 158 168 199 191 103 80 88 79 20
48 144 147 185 210 194 203 184 177 182 157 130 142 136 161 182 179 117 107 82 80 77

GFSNIL_con_3kmhel_069.txt.gz
Helicity
43 23 17 21 18 8 -5 -16 -16 -11 1 -1 4 9 9 8 9 16 22 27 27 26
34 40 19 16 14 3 3 -2 -8 -20 -10 -12 0 4 6 7 4 10 11 13 23 30
30 23 34 14 18 12 6 5 0 -21 -24 -14 -6 1 13 8 7 5 5 8 13 21
50 16 30 24 17 10 5 12 -2 -8 -21 -23 -9 -1 5 7 14 15 4 1 8 14
104 49 22 38 15 4 8 16 10 -7 0 -12 -22 -15 3 1 6 10 6 -1 0 8
56 68 41 38 47 25 6 5 9 17 12 11 -21 -28 -17 -6 -7 -5 2 -2 -2 3
108 87 58 41 45 51 50 25 6 10 17 14 0 -36 -34 -27 -16 -7 -9 -9 -8 -5
64 114 124 103 74 55 53 61 42 16 7 16 18 26 34 41 -14 -22 -18 -19 -17 -12
50 59 76 98 121 95 75 65 78 56 33 -5 -6 -13 75 72 53 36 27 -15 -20 -25
65 59 84 85 90 83 81 73 73 74 75 69 44 71 65 80 74 68 63 51 35 -35
43 27 63 105 102 102 83 76 67 54 67 86 82 106 105 100 61 81 72 67 66 55
49 40 73 146 120 92 74 69 67 59 55 59 66 96 119 142 77 57 68 84 83 81
96 70 69 131 164 121 91 76 71 58 65 70 61 80 112 144 91 95 66 64 77 85
162 72 61 87 114 105 89 90 76 71 75 75 71 68 116 147 114 105 104 75 76 72

GFSNIL_con_3kmhel_075.txt.gz
Helicity
6 13 19 11 31 36 -7 42 122 38 29 17 28 9 2 -4 7 -22 3 29 87 70
14 8 13 18 15 50 22 50 45 33 20 23 20 8 -11 -7 2 36 -1 14 41 60
5 10 13 27 24 31 37 24 79 39 17 17 20 -9 -17 3 1 -2 -3 24 2 18
12 14 19 26 26 22 26 49 11 33 14 9 12 27 -1 -20 9 -16 0 1 15 -19
25 19 25 27 32 32 25 23 22 23 16 12 2 1 16 6 -2 -11 0 -1 2 1
43 34 23 34 26 44 42 27 16 32 23 13 1 -2 0 13 -4 -5 -6 -6 -7 -4
50 48 34 29 47 34 50 47 33 24 35 29 8 -7 -8 -5 -7 -11 -6 -3 -5 -9
102 36 67 58 55 54 53 52 53 46 35 15 27 22 17 -18 -15 -12 -18 -15 -10 -6
253 222 86 65 73 80 74 64 66 62 63 49 -33 -26 57 58 11 9 -16 -20 -19 -26
343 181 148 163 103 91 83 76 66 51 56 65 68 -30 24 95 10 -17 -4 1 -16 -27
341 352 302 128 118 117 121 106 97 72 59 57 51 30 -23 93 114 97 -25 12 58 29
286 318 305 311 231 94 87 99 108 91 81 76 69 71 94 121 96 92 23 87 45 20
174 231 240 250 235 268 136 93 85 87 99 104 80 82 106 123 98 85 129 123 104 87
99 148 183 102 126 126 198 93 84 72 91 97 106 92 117 135 126 105 95 122 129 125